,,,PA_Meas_PMT16A,,PR_Meas_QMR101_102,,RH_Meas_QMH101,,SR_Meas_QMS101,,TA_Meas_QMH101,,GenWind,,GenWind,
date,time,status,PA,status,PR,status,RH,status,SR,status,TA,status,DirAvg,status,SpdAvg,
2010-10-30, 00:00:04,VALID,1002.62,VALID,0,INVALID,163.739,VALID,0,VALID,23.3514,VALID,51,VALID,0.344141,
2010-10-30, 00:01:04,VALID,1002.61,VALID,0,INVALID,163.746,VALID,0,VALID,23.3709,VALID,66,VALID,0.334375,
2010-10-30, 00:02:04,VALID,1002.61,VALID,0,INVALID,163.731,VALID,0.100563,VALID,23.3709,VALID,66,VALID,0.233594,
2010-10-30, 00:03:04,VALID,1002.64,VALID,0,INVALID,163.723,VALID,0.100563,VALID,23.3886,VALID,66,VALID,0.405859,
2010-10-30, 00:04:04,VALID,1002.63,VALID,0,INVALID,163.708,VALID,0.100563,VALID,23.4487,VALID,55,VALID,0.612109,
2010-10-30, 00:05:04,VALID,1002.63,VALID,0,INVALID,163.678,VALID,0.100563,VALID,23.4275,VALID,51,VALID,0.593359,
2010-10-30, 00:06:04,VALID,1002.66,VALID,0,INVALID,163.701,VALID,0.100563,VALID,23.4275,VALID,42,VALID,0.796484,
2010-10-30, 00:07:04,VALID,1002.61,VALID,0,INVALID,163.731,VALID,0.100563,VALID,23.4293,VALID,42,VALID,0.500391,
2010-10-30, 00:08:04,VALID,1002.64,VALID,0,INVALID,163.716,VALID,0,VALID,23.4098,VALID,42,VALID,0.380859,
2010-10-30, 00:09:04,VALID,1002.65,VALID,0,INVALID,163.708,VALID,0.100563,VALID,23.4098,VALID,41,VALID,0.378516,
2010-10-30, 00:10:04,VALID,1002.64,VALID,0,INVALID,163.685,VALID,0,VALID,23.3302,VALID,41,VALID,0.405469,
2010-10-30, 00:11:04,VALID,1002.63,VALID,0,INVALID,163.754,VALID,0.100563,VALID,23.3532,VALID,41,VALID,0.525391,
2010-10-30, 00:12:04,VALID,1002.65,VALID,0,INVALID,163.746,VALID,0,VALID,23.2913,VALID,40,VALID,0.525391,
2010-10-30, 00:13:04,VALID,1002.62,VALID,0,INVALID,163.731,VALID,0,VALID,23.3125,VALID,40,VALID,0.561719,
2010-10-30, 00:14:04,VALID,1002.62,VALID,0,INVALID,163.746,VALID,0,VALID,23.2931,VALID,40,VALID,0.817578,
2010-10-30, 00:15:04,VALID,1002.63,VALID,0,INVALID,163.762,VALID,0,VALID,23.2524,VALID,40,VALID,0.589453,
2010-10-30, 00:16:04,VALID,1002.62,VALID,0,INVALID,163.731,VALID,0.100563,VALID,23.2541,VALID,40,VALID,0.694922,
2010-10-30, 00:17:04,VALID,1002.59,VALID,0,INVALID,163.739,VALID,0.100563,VALID,23.2347,VALID,30,VALID,0.630469,
2010-10-30, 00:18:04,VALID,1002.61,VALID,0,INVALID,163.754,VALID,0.100563,VALID,23.2134,VALID,33,VALID,0.701172,
2010-10-30, 00:19:04,VALID,1002.61,VALID,0,INVALID,163.731,VALID,0,VALID,23.1728,VALID,33,VALID,0.536719,
2010-10-30, 00:20:04,VALID,1002.63,VALID,0,INVALID,163.716,VALID,0,VALID,23.1957,VALID,33,VALID,0.400781,
2010-10-30, 00:21:04,VALID,1002.61,VALID,0,INVALID,163.731,VALID,0.100563,VALID,23.194,VALID,33,VALID,0.319531,
2010-10-30, 00:22:04,VALID,1002.62,VALID,0,INVALID,163.754,VALID,0,VALID,23.2152,VALID,50,VALID,0.575391,
2010-10-30, 00:23:04,VALID,1002.62,VALID,0,INVALID,163.746,VALID,0,VALID,23.2134,VALID,58,VALID,0.501953,
2010-10-30, 00:24:04,VALID,1002.65,VALID,0,INVALID,163.731,VALID,0,VALID,23.2329,VALID,55,VALID,0.45,
2010-10-30, 00:25:04,VALID,1002.65,VALID,0,INVALID,163.708,VALID,0.100563,VALID,23.2541,VALID,44,VALID,0.595312,
2010-10-30, 00:26:04,VALID,1002.64,VALID,0,INVALID,163.723,VALID,0.100563,VALID,23.2329,VALID,44,VALID,0.541016,
2010-10-30, 00:27:04,VALID,1002.67,VALID,0,INVALID,163.754,VALID,0,VALID,23.2524,VALID,42,VALID,0.571484,
2010-10-30, 00:28:04,VALID,1002.67,VALID,0,INVALID,163.716,VALID,0,VALID,23.2541,VALID,42,VALID,0.562109,
2010-10-30, 00:29:04,VALID,1002.66,VALID,0,INVALID,163.716,VALID,0,VALID,23.2736,VALID,40,VALID,0.7125,
2010-10-30, 00:30:04,VALID,1002.68,VALID,0,INVALID,163.746,VALID,0,VALID,23.2524,VALID,40,VALID,0.673047,
2010-10-30, 00:31:04,VALID,1002.66,VALID,0,INVALID,163.731,VALID,0,VALID,23.2347,VALID,39,VALID,0.558984,
2010-10-30, 00:32:04,VALID,1002.67,VALID,0,INVALID,163.731,VALID,0.100563,VALID,23.2541,VALID,37,VALID,0.473047,
2010-10-30, 00:33:04,VALID,1002.67,VALID,0,INVALID,163.739,VALID,0,VALID,23.2152,VALID,37,VALID,0.435547,
2010-10-30, 00:34:04,VALID,1002.66,VALID,0,INVALID,163.739,VALID,0,VALID,23.1763,VALID,37,VALID,0.619531,
2010-10-30, 00:35:04,VALID,1002.68,VALID,0,INVALID,163.762,VALID,0,VALID,23.1551,VALID,37,VALID,0.586719,
2010-10-30, 00:36:04,VALID,1002.66,VALID,0,INVALID,163.746,VALID,0,VALID,23.1374,VALID,37,VALID,0.605859,
2010-10-30, 00:37:04,VALID,1002.66,VALID,0,INVALID,163.746,VALID,0,VALID,23.0772,VALID,37,VALID,0.542578,
2010-10-30, 00:38:04,VALID,1002.69,VALID,0,INVALID,163.754,VALID,0,VALID,23.079,VALID,37,VALID,0.579297,
2010-10-30, 00:39:04,VALID,1002.69,VALID,0,INVALID,163.739,VALID,0,VALID,23.0383,VALID,37,VALID,0.646484,
2010-10-30, 00:40:04,VALID,1002.68,VALID,0,INVALID,163.746,VALID,0.100563,VALID,23.0401,VALID,37,VALID,0.619531,
2010-10-30, 00:41:04,VALID,1002.68,VALID,0,INVALID,163.731,VALID,0,VALID,23.0189,VALID,36,VALID,0.673828,
2010-10-30, 00:42:04,VALID,1002.66,VALID,0,INVALID,163.769,VALID,0,VALID,23.0401,VALID,31,VALID,0.486719,
2010-10-30, 00:43:04,VALID,1002.68,VALID,0,INVALID,163.754,VALID,0.100563,VALID,23.0383,VALID,31,VALID,0.501953,
2010-10-30, 00:44:04,VALID,1002.68,VALID,0,INVALID,163.754,VALID,0,VALID,23.0595,VALID,31,VALID,0.506641,
2010-10-30, 00:45:04,VALID,1002.68,VALID,0,INVALID,163.723,VALID,0,VALID,23.0383,VALID,31,VALID,0.490625,
2010-10-30, 00:46:04,VALID,1002.71,VALID,0,INVALID,163.754,VALID,0,VALID,23.0595,VALID,31,VALID,0.494922,
2010-10-30, 00:47:04,VALID,1002.7,VALID,0,INVALID,163.762,VALID,0,VALID,23.0595,VALID,28,VALID,0.761719,
2010-10-30, 00:48:04,VALID,1002.67,VALID,0,INVALID,163.777,VALID,0,VALID,23.0401,VALID,29,VALID,0.473047,
2010-10-30, 00:49:04,VALID,1002.69,VALID,0,INVALID,163.746,VALID,0,VALID,23.0401,VALID,29,VALID,0.36875,
2010-10-30, 00:50:04,VALID,1002.69,VALID,0,INVALID,163.754,VALID,0,VALID,23.0401,VALID,29,VALID,0.375781,
2010-10-30, 00:51:04,VALID,1002.69,VALID,0,INVALID,163.777,VALID,0,VALID,23.0206,VALID,29,VALID,0.468359,
2010-10-30, 00:52:04,VALID,1002.72,VALID,0,INVALID,163.731,VALID,0,VALID,23.0012,VALID,29,VALID,0.680859,
2010-10-30, 00:53:04,VALID,1002.7,VALID,0,INVALID,163.739,VALID,0.100563,VALID,22.9994,VALID,29,VALID,0.552344,
2010-10-30, 00:54:04,VALID,1002.68,VALID,0,INVALID,163.777,VALID,0,VALID,22.98,VALID,29,VALID,0.719531,
2010-10-30, 00:55:04,VALID,1002.67,VALID,0,INVALID,163.746,VALID,0,VALID,23.0189,VALID,64,VALID,0.569141,
2010-10-30, 00:56:04,VALID,1002.66,VALID,0,INVALID,163.784,VALID,0,VALID,23.0189,VALID,41,VALID,0.507813,
2010-10-30, 00:57:04,VALID,1002.67,VALID,0,INVALID,163.746,VALID,0,VALID,23.0206,VALID,42,VALID,0.65,
2010-10-30, 00:58:04,VALID,1002.64,VALID,0,INVALID,163.754,VALID,0,VALID,22.9817,VALID,42,VALID,0.405469,
2010-10-30, 00:59:04,VALID,1002.65,VALID,0,INVALID,163.762,VALID,0,VALID,22.9622,VALID,42,VALID,0.414844,
2010-10-30, 01:00:04,VALID,1002.65,VALID,0,INVALID,163.769,VALID,0,VALID,22.9445,VALID,42,VALID,0.470703,
2010-10-30, 01:01:04,VALID,1002.66,VALID,0,INVALID,163.762,VALID,0,VALID,22.964,VALID,42,VALID,0.504687,
2010-10-30, 01:02:04,VALID,1002.66,VALID,0,INVALID,163.746,VALID,0,VALID,22.9445,VALID,38,VALID,0.587891,
2010-10-30, 01:03:04,VALID,1002.68,VALID,0,INVALID,163.769,VALID,0,VALID,22.9233,VALID,38,VALID,0.486328,
2010-10-30, 01:04:04,VALID,1002.68,VALID,0,INVALID,163.746,VALID,0,VALID,22.9445,VALID,38,VALID,0.539063,
2010-10-30, 01:05:04,VALID,1002.67,VALID,0,INVALID,163.754,VALID,0,VALID,22.964,VALID,53,VALID,0.638281,
2010-10-30, 01:06:04,VALID,1002.65,VALID,0,INVALID,163.731,VALID,0,VALID,22.9834,VALID,52,VALID,0.555859,
2010-10-30, 01:07:04,VALID,1002.64,VALID,0,INVALID,163.746,VALID,0,VALID,22.9834,VALID,52,VALID,0.346484,
2010-10-30, 01:08:04,VALID,1002.65,VALID,0,INVALID,163.762,VALID,0,VALID,22.9428,VALID,50,VALID,0.608984,
2010-10-30, 01:09:04,VALID,1002.62,VALID,0,INVALID,163.762,VALID,0,VALID,22.9428,VALID,41,VALID,0.521875,
2010-10-30, 01:10:04,VALID,1002.63,VALID,0,INVALID,163.754,VALID,0,VALID,22.9233,VALID,41,VALID,0.532422,
2010-10-30, 01:11:04,VALID,1002.61,VALID,0,INVALID,163.754,VALID,0,VALID,22.9039,VALID,41,VALID,0.519141,
2010-10-30, 01:12:04,VALID,1002.66,VALID,0,INVALID,163.754,VALID,0,VALID,22.9039,VALID,41,VALID,0.401953,
2010-10-30, 01:13:04,VALID,1002.67,VALID,0,INVALID,163.784,VALID,0,VALID,22.9056,VALID,41,VALID,0.545703,
2010-10-30, 01:14:04,VALID,1002.66,VALID,0,INVALID,163.762,VALID,0,VALID,22.9056,VALID,41,VALID,0.349219,
2010-10-30, 01:15:04,VALID,1002.68,VALID,0,INVALID,163.754,VALID,0,VALID,22.9251,VALID,41,VALID,0.407031,
2010-10-30, 01:16:04,VALID,1002.68,VALID,0,INVALID,163.762,VALID,0,VALID,22.9445,VALID,41,VALID,0.438672,
2010-10-30, 01:17:04,VALID,1002.67,VALID,0,INVALID,163.762,VALID,0,VALID,22.9428,VALID,40,VALID,0.571094,
2010-10-30, 01:18:04,VALID,1002.65,VALID,0,INVALID,163.754,VALID,0,VALID,22.9622,VALID,40,VALID,0.627344,
2010-10-30, 01:19:04,VALID,1002.68,VALID,0,INVALID,163.777,VALID,0,VALID,22.9834,VALID,40,VALID,0.698828,
2010-10-30, 01:20:04,VALID,1002.7,VALID,0,INVALID,163.746,VALID,0,VALID,23.0029,VALID,44,VALID,0.768359,
2010-10-30, 01:21:04,VALID,1002.69,VALID,0,INVALID,163.762,VALID,0,VALID,22.9834,VALID,43,VALID,0.561328,
2010-10-30, 01:22:04,VALID,1002.69,VALID,0,INVALID,163.746,VALID,0,VALID,22.9233,VALID,43,VALID,0.438672,
2010-10-30, 01:23:04,VALID,1002.71,VALID,0,INVALID,163.762,VALID,0,VALID,22.8844,VALID,39,VALID,0.501172,
2010-10-30, 01:24:04,VALID,1002.75,VALID,0,INVALID,163.807,VALID,0,VALID,22.8667,VALID,38,VALID,0.537109,
2010-10-30, 01:25:04,VALID,1002.74,VALID,0,INVALID,163.762,VALID,0,VALID,22.7871,VALID,38,VALID,0.511328,
2010-10-30, 01:26:04,VALID,1002.73,VALID,0,INVALID,163.8,VALID,0,VALID,22.7677,VALID,38,VALID,0.48125,
2010-10-30, 01:27:04,VALID,1002.75,VALID,0,INVALID,163.777,VALID,0,VALID,22.7482,VALID,38,VALID,0.512891,
2010-10-30, 01:28:04,VALID,1002.74,VALID,0,INVALID,163.807,VALID,0,VALID,22.7482,VALID,38,VALID,0.36875,
2010-10-30, 01:29:04,VALID,1002.75,VALID,0,INVALID,163.777,VALID,0,VALID,22.7482,VALID,38,VALID,0.415625,
2010-10-30, 01:30:04,VALID,1002.76,VALID,0,INVALID,163.769,VALID,0,VALID,22.7888,VALID,38,VALID,0.502344,
2010-10-30, 01:31:04,VALID,1002.77,VALID,0,INVALID,163.784,VALID,0,VALID,22.7888,VALID,38,VALID,0.376563,
2010-10-30, 01:32:04,VALID,1002.79,VALID,0,INVALID,163.746,VALID,0,VALID,22.8066,VALID,42,VALID,0.466016,
2010-10-30, 01:33:04,VALID,1002.77,VALID,0,INVALID,163.777,VALID,0,VALID,22.8472,VALID,68,VALID,0.504297,
2010-10-30, 01:34:04,VALID,1002.8,VALID,0,INVALID,163.792,VALID,0,VALID,22.8649,VALID,50,VALID,0.575781,
2010-10-30, 01:35:04,VALID,1002.79,VALID,0,INVALID,163.777,VALID,0,VALID,22.8632,VALID,44,VALID,0.666406,
2010-10-30, 01:36:04,VALID,1002.8,VALID,0,INVALID,163.754,VALID,0,VALID,22.9251,VALID,47,VALID,0.564844,
2010-10-30, 01:37:04,VALID,1002.82,VALID,0,INVALID,163.762,VALID,0,VALID,22.9039,VALID,49,VALID,0.487891,
2010-10-30, 01:38:04,VALID,1002.83,VALID,0,INVALID,163.754,VALID,0,VALID,22.9039,VALID,50,VALID,0.454688,
2010-10-30, 01:39:04,VALID,1002.83,VALID,0,INVALID,163.754,VALID,0,VALID,22.9233,VALID,46,VALID,0.598437,
2010-10-30, 01:40:04,VALID,1002.85,VALID,0,INVALID,163.754,VALID,0,VALID,22.9428,VALID,41,VALID,0.771875,
2010-10-30, 01:41:04,VALID,1002.87,VALID,0,INVALID,163.777,VALID,0,VALID,22.9817,VALID,38,VALID,0.73125,
2010-10-30, 01:42:04,VALID,1002.84,VALID,0,INVALID,163.746,VALID,0,VALID,23.0029,VALID,38,VALID,0.510156,
2010-10-30, 01:43:04,VALID,1002.88,VALID,0,INVALID,163.769,VALID,0.100563,VALID,23.0401,VALID,38,VALID,0.654688,
2010-10-30, 01:44:04,VALID,1002.9,VALID,0,INVALID,163.769,VALID,0.100563,VALID,22.9994,VALID,40,VALID,0.316406,
2010-10-30, 01:45:04,VALID,1002.91,VALID,0,INVALID,163.769,VALID,0,VALID,22.9605,VALID,40,VALID,0.321875,
2010-10-30, 01:46:04,VALID,1002.91,VALID,0,INVALID,163.762,VALID,0.100563,VALID,22.9622,VALID,40,VALID,0.532031,
2010-10-30, 01:47:04,VALID,1002.92,VALID,0,INVALID,163.792,VALID,0.100563,VALID,22.8827,VALID,40,VALID,0.513281,
2010-10-30, 01:48:04,VALID,1002.95,VALID,0,INVALID,163.739,VALID,0.100563,VALID,22.842,VALID,40,VALID,0.430859,
2010-10-30, 01:49:04,VALID,1002.96,VALID,0,INVALID,163.792,VALID,0.100563,VALID,22.8827,VALID,41,VALID,0.629297,
2010-10-30, 01:50:04,VALID,1002.95,VALID,0,INVALID,163.784,VALID,0.100563,VALID,22.9021,VALID,47,VALID,0.744922,
2010-10-30, 01:51:04,VALID,1002.97,VALID,0,INVALID,163.762,VALID,0.100563,VALID,22.9039,VALID,47,VALID,0.530469,
2010-10-30, 01:52:04,VALID,1002.95,VALID,0,INVALID,163.769,VALID,0.100563,VALID,22.9021,VALID,47,VALID,0.548437,
2010-10-30, 01:53:04,VALID,1002.92,VALID,0,INVALID,163.769,VALID,0.100563,VALID,22.9039,VALID,47,VALID,0.509375,
2010-10-30, 01:54:04,VALID,1002.96,VALID,0,INVALID,163.754,VALID,0.100563,VALID,22.9039,VALID,47,VALID,0.348828,
2010-10-30, 01:55:04,VALID,1002.96,VALID,0,INVALID,163.754,VALID,0,VALID,22.8649,VALID,47,VALID,0.528906,
2010-10-30, 01:56:04,VALID,1002.98,VALID,0,INVALID,163.777,VALID,0,VALID,22.8243,VALID,47,VALID,0.238672,
2010-10-30, 01:57:04,VALID,1002.99,VALID,0,INVALID,163.769,VALID,0.100563,VALID,22.7854,VALID,47,VALID,0.276172,
2010-10-30, 01:58:04,VALID,1003.03,VALID,0,INVALID,163.769,VALID,0,VALID,22.7854,VALID,47,VALID,0.538281,
2010-10-30, 01:59:04,VALID,1003.04,VALID,0,INVALID,163.762,VALID,0,VALID,22.7854,VALID,47,VALID,0.428906,
2010-10-30, 02:00:04,VALID,1003.03,VALID,0,INVALID,163.777,VALID,0,VALID,22.8243,VALID,47,VALID,0.367578,
2010-10-30, 02:01:04,VALID,1003.04,VALID,0,INVALID,163.746,VALID,0.100563,VALID,22.8649,VALID,47,VALID,0.358203,
2010-10-30, 02:02:04,VALID,1003.02,VALID,0,INVALID,163.762,VALID,0.100563,VALID,22.8827,VALID,47,VALID,0.560938,
2010-10-30, 02:03:04,VALID,1003.03,VALID,0,INVALID,163.784,VALID,0.100563,VALID,22.9039,VALID,46,VALID,0.609766,
2010-10-30, 02:04:04,VALID,1003.02,VALID,0,INVALID,163.754,VALID,0,VALID,22.9021,VALID,47,VALID,0.500781,
2010-10-30, 02:05:04,VALID,1003.02,VALID,0,INVALID,163.769,VALID,0,VALID,22.9233,VALID,47,VALID,0.473828,
2010-10-30, 02:06:04,VALID,1003.08,VALID,0,INVALID,163.777,VALID,0,VALID,22.9039,VALID,48,VALID,0.405078,
2010-10-30, 02:07:04,VALID,1003.07,VALID,0,INVALID,163.777,VALID,0.100563,VALID,22.8827,VALID,48,VALID,0.338281,
2010-10-30, 02:08:04,VALID,1003.1,VALID,0,INVALID,163.769,VALID,0,VALID,22.8844,VALID,47,VALID,0.514453,
2010-10-30, 02:09:04,VALID,1003.1,VALID,0,INVALID,163.777,VALID,0.100563,VALID,22.8632,VALID,42,VALID,0.503125,
2010-10-30, 02:10:04,VALID,1003.1,VALID,0,INVALID,163.762,VALID,0.100563,VALID,22.8632,VALID,42,VALID,0.409766,
2010-10-30, 02:11:04,VALID,1003.09,VALID,0,INVALID,163.769,VALID,0.100563,VALID,22.8649,VALID,42,VALID,0.307813,
2010-10-30, 02:12:04,VALID,1003.06,VALID,0,INVALID,163.762,VALID,0.100563,VALID,22.8438,VALID,49,VALID,0.376563,
2010-10-30, 02:13:04,VALID,1003.08,VALID,0,INVALID,163.762,VALID,0,VALID,22.8438,VALID,49,VALID,0.379297,
2010-10-30, 02:14:04,VALID,1003.07,VALID,0,INVALID,163.777,VALID,0.100563,VALID,22.8438,VALID,49,VALID,0.463672,
2010-10-30, 02:15:04,VALID,1003.09,VALID,0,INVALID,163.792,VALID,0.100563,VALID,22.8455,VALID,49,VALID,0.334766,
2010-10-30, 02:16:04,VALID,1003.09,VALID,0,INVALID,163.777,VALID,0.100563,VALID,22.826,VALID,49,VALID,0.558594,
2010-10-30, 02:17:04,VALID,1003.13,VALID,0,INVALID,163.769,VALID,0.100563,VALID,22.826,VALID,49,VALID,0.422656,
2010-10-30, 02:18:04,VALID,1003.13,VALID,0,INVALID,163.762,VALID,0,VALID,22.8048,VALID,49,VALID,0.442969,
2010-10-30, 02:19:04,VALID,1003.14,VALID,0,INVALID,163.762,VALID,0.100563,VALID,22.8048,VALID,49,VALID,0.323828,
2010-10-30, 02:20:04,VALID,1003.17,VALID,0,INVALID,163.777,VALID,0,VALID,22.8243,VALID,49,VALID,0.325391,
2010-10-30, 02:21:04,VALID,1003.17,VALID,0,INVALID,163.769,VALID,0.100563,VALID,22.8243,VALID,49,VALID,0.383984,
2010-10-30, 02:22:04,VALID,1003.2,VALID,0,INVALID,163.746,VALID,0.100563,VALID,22.8632,VALID,49,VALID,0.374609,
2010-10-30, 02:23:04,VALID,1003.21,VALID,0,INVALID,163.777,VALID,0.100563,VALID,22.9039,VALID,54,VALID,0.485156,
2010-10-30, 02:24:04,VALID,1003.21,VALID,0,INVALID,163.746,VALID,0,VALID,22.9233,VALID,52,VALID,0.627344,
2010-10-30, 02:25:04,VALID,1003.24,VALID,0,INVALID,163.792,VALID,0.100563,VALID,22.941,VALID,47,VALID,0.542188,
2010-10-30, 02:26:04,VALID,1003.25,VALID,0,INVALID,163.769,VALID,0.100563,VALID,22.9605,VALID,47,VALID,0.621484,
2010-10-30, 02:27:04,VALID,1003.29,VALID,0,INVALID,163.754,VALID,0.100563,VALID,23.0012,VALID,47,VALID,0.630078,
2010-10-30, 02:28:04,VALID,1003.32,VALID,0,INVALID,163.746,VALID,0.100563,VALID,23.0012,VALID,47,VALID,0.553125,
2010-10-30, 02:29:04,VALID,1003.33,VALID,0,INVALID,163.762,VALID,0.100563,VALID,22.98,VALID,47,VALID,0.728516,
2010-10-30, 02:30:04,VALID,1003.36,VALID,0,INVALID,163.739,VALID,0.100563,VALID,22.98,VALID,46,VALID,0.611719,
2010-10-30, 02:31:04,VALID,1003.38,VALID,0,INVALID,163.777,VALID,0.100563,VALID,22.941,VALID,46,VALID,0.284766,
2010-10-30, 02:32:04,VALID,1003.41,VALID,0,INVALID,163.769,VALID,0.100563,VALID,22.8844,VALID,46,VALID,0.325781,
2010-10-30, 02:33:04,VALID,1003.41,VALID,0,INVALID,163.762,VALID,0.100563,VALID,22.8243,VALID,46,VALID,0.499219,
2010-10-30, 02:34:04,VALID,1003.4,VALID,0,INVALID,163.777,VALID,0.100563,VALID,22.8048,VALID,46,VALID,0.471484,
2010-10-30, 02:35:04,VALID,1003.41,VALID,0,INVALID,163.784,VALID,0.201126,VALID,22.7677,VALID,46,VALID,0.320313,
2010-10-30, 02:36:04,VALID,1003.41,VALID,0,INVALID,163.762,VALID,0.201126,VALID,22.7465,VALID,46,VALID,0.353516,
2010-10-30, 02:37:04,VALID,1003.43,VALID,0,INVALID,163.777,VALID,0.201126,VALID,22.7465,VALID,48,VALID,0.609766,
2010-10-30, 02:38:04,VALID,1003.42,VALID,0,INVALID,163.784,VALID,0.201126,VALID,22.7659,VALID,48,VALID,0.566406,
2010-10-30, 02:39:04,VALID,1003.44,VALID,0,INVALID,163.792,VALID,0.402252,VALID,22.7659,VALID,48,VALID,0.552734,
2010-10-30, 02:40:04,VALID,1003.45,VALID,0,INVALID,163.8,VALID,0.402252,VALID,22.7854,VALID,48,VALID,0.343359,
2010-10-30, 02:41:04,VALID,1003.46,VALID,0,INVALID,163.754,VALID,0.603378,VALID,22.7854,VALID,48,VALID,0.249219,
2010-10-30, 02:42:04,VALID,1003.5,VALID,0,INVALID,163.739,VALID,0.703941,VALID,22.7482,VALID,48,VALID,0.495703,
2010-10-30, 02:43:04,VALID,1003.51,VALID,0,INVALID,163.769,VALID,0.905066,VALID,22.727,VALID,48,VALID,0.30625,
2010-10-30, 02:44:04,VALID,1003.51,VALID,0,INVALID,163.769,VALID,1.10619,VALID,22.7076,VALID,48,VALID,0.230078,
2010-10-30, 02:45:04,VALID,1003.54,VALID,0,INVALID,163.777,VALID,1.30732,VALID,22.7093,VALID,48,VALID,0.364062,
2010-10-30, 02:46:04,VALID,1003.54,VALID,0,INVALID,163.784,VALID,1.50844,VALID,22.7287,VALID,48,VALID,0.306641,
2010-10-30, 02:47:04,VALID,1003.53,VALID,0,INVALID,163.784,VALID,1.70957,VALID,22.727,VALID,48,VALID,0.308984,
2010-10-30, 02:48:04,VALID,1003.57,VALID,0,INVALID,163.769,VALID,1.9107,VALID,22.7287,VALID,48,VALID,0.364844,
2010-10-30, 02:49:04,VALID,1003.58,VALID,0,INVALID,163.777,VALID,2.21238,VALID,22.727,VALID,48,VALID,0.479688,
2010-10-30, 02:50:04,VALID,1003.59,VALID,0,INVALID,163.762,VALID,2.51407,VALID,22.727,VALID,48,VALID,0.381641,
2010-10-30, 02:51:04,VALID,1003.6,VALID,0,INVALID,163.769,VALID,2.81576,VALID,22.727,VALID,48,VALID,0.514063,
2010-10-30, 02:52:04,VALID,1003.62,VALID,0,INVALID,163.746,VALID,3.21801,VALID,22.7076,VALID,48,VALID,0.476563,
2010-10-30, 02:53:04,VALID,1003.64,VALID,0,INVALID,163.792,VALID,3.62027,VALID,22.6686,VALID,48,VALID,0.391406,
2010-10-30, 02:54:04,VALID,1003.64,VALID,0,INVALID,163.746,VALID,4.02252,VALID,22.6704,VALID,48,VALID,0.199609,
2010-10-30, 02:55:04,VALID,1003.66,VALID,0,INVALID,163.762,VALID,4.52533,VALID,22.6704,VALID,48,VALID,0.474219,
2010-10-30, 02:56:04,VALID,1003.67,VALID,0,INVALID,163.784,VALID,5.12871,VALID,22.6492,VALID,48,VALID,0.422656,
2010-10-30, 02:57:04,VALID,1003.72,VALID,0,INVALID,163.784,VALID,5.63153,VALID,22.6492,VALID,48,VALID,0.428516,
2010-10-30, 02:58:04,VALID,1003.76,VALID,0,INVALID,163.769,VALID,6.33547,VALID,22.6492,VALID,48,VALID,0.270703,
2010-10-30, 02:59:04,VALID,1003.81,VALID,0,INVALID,163.777,VALID,7.34109,VALID,22.6898,VALID,48,VALID,0.391016,
2010-10-30, 03:00:04,VALID,1003.82,VALID,0,INVALID,163.769,VALID,8.04504,VALID,22.6704,VALID,48,VALID,0.453516,
2010-10-30, 03:01:04,VALID,1003.83,VALID,0,INVALID,163.777,VALID,8.74898,VALID,22.711,VALID,48,VALID,0.394531,
2010-10-30, 03:02:04,VALID,1003.83,VALID,0,INVALID,163.777,VALID,9.45292,VALID,22.7287,VALID,49,VALID,0.603906,
2010-10-30, 03:03:04,VALID,1003.85,VALID,0,INVALID,163.777,VALID,10.1569,VALID,22.7482,VALID,49,VALID,0.397266,
2010-10-30, 03:04:04,VALID,1003.86,VALID,0,INVALID,163.8,VALID,10.9614,VALID,22.7465,VALID,48,VALID,0.567187,
2010-10-30, 03:05:04,VALID,1003.87,VALID,0,INVALID,163.769,VALID,11.3636,VALID,22.7871,VALID,47,VALID,0.574219,
2010-10-30, 03:06:04,VALID,1003.9,VALID,0,INVALID,163.777,VALID,10.7602,VALID,22.826,VALID,47,VALID,0.497656,
2010-10-30, 03:07:04,VALID,1003.89,VALID,0,INVALID,163.784,VALID,9.75461,VALID,22.826,VALID,47,VALID,0.467187,
2010-10-30, 03:08:04,VALID,1003.92,VALID,0,INVALID,163.762,VALID,9.65404,VALID,22.826,VALID,46,VALID,0.372266,
2010-10-30, 03:09:04,VALID,1003.93,VALID,0,INVALID,163.784,VALID,9.95573,VALID,22.8278,VALID,46,VALID,0.469141,
2010-10-30, 03:10:04,VALID,1003.96,VALID,0,INVALID,163.762,VALID,10.6597,VALID,22.826,VALID,46,VALID,0.549609,
2010-10-30, 03:11:04,VALID,1003.99,VALID,0,INVALID,163.754,VALID,11.6653,VALID,22.8667,VALID,46,VALID,0.531641,
2010-10-30, 03:12:04,VALID,1004,VALID,0,INVALID,163.754,VALID,13.2743,VALID,22.8438,VALID,46,VALID,0.453516,
2010-10-30, 03:13:04,VALID,1004.01,VALID,0,INVALID,163.777,VALID,15.3861,VALID,22.8844,VALID,37,VALID,0.546484,
2010-10-30, 03:14:04,VALID,1004.01,VALID,0,INVALID,163.762,VALID,16.2912,VALID,22.9039,VALID,37,VALID,0.389453,
2010-10-30, 03:15:04,VALID,1004.01,VALID,0,INVALID,163.754,VALID,15.3861,VALID,22.9233,VALID,35,VALID,0.450781,
2010-10-30, 03:16:04,VALID,1004,VALID,0,INVALID,163.769,VALID,15.4867,VALID,22.9233,VALID,35,VALID,0.528125,
2010-10-30, 03:17:04,VALID,1004.05,VALID,0,INVALID,163.746,VALID,17.0957,VALID,22.9428,VALID,39,VALID,0.394531,
2010-10-30, 03:18:04,VALID,1004.03,VALID,0,INVALID,163.754,VALID,19.5092,VALID,22.9834,VALID,39,VALID,0.513281,
2010-10-30, 03:19:04,VALID,1004.04,VALID,0,INVALID,163.762,VALID,21.1182,VALID,23.0029,VALID,39,VALID,0.410937,
2010-10-30, 03:20:04,VALID,1004.06,VALID,0,INVALID,163.754,VALID,22.9284,VALID,23.0012,VALID,40,VALID,0.438281,
2010-10-30, 03:21:04,VALID,1004.06,VALID,0,INVALID,163.739,VALID,27.6548,VALID,23.0418,VALID,42,VALID,0.384375,
2010-10-30, 03:22:04,VALID,1004.08,VALID,0,INVALID,163.762,VALID,35.2976,VALID,23.0984,VALID,46,VALID,0.220703,
2010-10-30, 03:23:04,VALID,1004.05,VALID,0,INVALID,163.731,VALID,47.0635,VALID,23.2187,VALID,46,VALID,0.153125,
2010-10-30, 03:24:04,VALID,1004.07,VALID,0,INVALID,163.731,VALID,63.7569,VALID,23.2347,VALID,48,VALID,0.461719,
2010-10-30, 03:25:04,VALID,1004.1,VALID,0,INVALID,163.739,VALID,80.752,VALID,23.332,VALID,36,VALID,0.378516,
2010-10-30, 03:26:04,VALID,1004.08,VALID,0,INVALID,163.716,VALID,90.6072,VALID,23.4505,VALID,36,VALID,0.340625,
2010-10-30, 03:27:04,VALID,1004.11,VALID,0,INVALID,163.685,VALID,95.7359,VALID,23.5266,VALID,36,VALID,0.399219,
2010-10-30, 03:28:04,VALID,1004.09,VALID,0,INVALID,163.723,VALID,100.161,VALID,23.6841,VALID,36,VALID,0.255859,
2010-10-30, 03:29:04,VALID,1004.07,VALID,0,INVALID,163.678,VALID,104.083,VALID,23.8009,VALID,36,VALID,0.215625,
2010-10-30, 03:30:04,VALID,1004.07,VALID,0,INVALID,163.685,VALID,107.1,VALID,23.9177,VALID,35,VALID,0.569922,
2010-10-30, 03:31:04,VALID,1004.07,VALID,0,INVALID,163.639,VALID,111.927,VALID,24.015,VALID,34,VALID,0.549609,
2010-10-30, 03:32:04,VALID,1004.11,VALID,0,INVALID,163.67,VALID,116.15,VALID,24.1513,VALID,34,VALID,0.141016,
2010-10-30, 03:33:04,VALID,1004.11,VALID,0,INVALID,160.107,VALID,118.865,VALID,24.307,VALID,34,VALID,0.254687,
2010-10-30, 03:34:04,VALID,1004.13,VALID,0,INVALID,144.85,VALID,123.089,VALID,24.4628,VALID,34,VALID,0.378125,
2010-10-30, 03:35:04,VALID,1004.09,VALID,0,INVALID,137.389,VALID,126.508,VALID,24.6574,VALID,34,VALID,0,